User: anonymous   Login
Location: Oshawa
(43.9000°N, 78.8670°W)
Time: 15:32:45
(UTC-05:00)
Language:

Cosmos 1953 Rocket - Orbit

View from above orbital plane
View from above orbital plane
View from above satellite
View from above satellite

Ground track
Ground track

The orbit data is extracted from the following two-line orbital elements,

1 19211U 88050B   14329.48958443  .00000529  00000-0  62708-4 0  4087
2 19211 082.5262 356.4201 0020692 319.1061 174.5862 14.82546241428275
Epoch (UTC): 25 November 2014 11:45:00
Eccentricity: 0.0020692
inclination: 82.5262°
perigee height: 607 km
apogee height: 636 km
right ascension of ascending node: 356.4201°
argument of perigee: 319.1061°
revolutions per day: 14.82546241
mean anomaly at epoch: 174.5862°
orbit number at epoch: 42827

The dashed part of the orbit path shows where the satellite is in the earth's shadow,  

DLR